DW8587 Weather Reports


Display with metric or nautical units.
time (UTC)temp
F
wind
direction
speed
MPH
gust
MPH
rain 1hr
in
rain 24hr
in
rain mn
in
humidity
%
barometer
mb
20260902154552 87 298 2.0 5.0 0.00 0.00 0.00 53 1015.1
20260902153059 86 268 4.0 9.0 0.00 0.00 0.00 55 1015.3
20260902151550 87 323 3.0 9.0 0.00 0.00 0.00 52 1015.3
20260902150047 88 303 3.0 7.0 0.00 0.00 0.00 52 1015.5
20260902144546 86 272 1.0 7.0 0.00 0.00 0.00 54 1015.6
20260902143047 87 343 3.0 6.0 0.00 0.00 0.00 51 1015.6
20260902141543 86 296 2.0 10.0 0.00 0.00 0.00 53 1015.7
20260902140041 87 294 3.0 9.0 0.00 0.00 0.00 53 1015.8
20260902134539 86 167 1.0 6.0 0.00 0.00 0.00 53 1015.9
20260902133038 86 144 3.0 7.0 0.00 0.00 0.00 52 1015.9
20260902131535 86 250 0.0 7.0 0.00 0.00 0.00 53 1016.1
20260902130030 85 319 2.0 5.0 0.00 0.00 0.00 56 1016.4
20260902124528 83 175 2.0 5.0 0.00 0.00 0.00 59 1016.5
20260902123028 83 118 1.0 3.0 0.00 0.00 0.00 60 1016.7
20260902121525 84 255 1.0 3.0 0.00 0.00 0.00 58 1016.8
20260902120025 84 327 0.0 4.0 0.00 0.00 0.00 59 1017.0
20260902114523 84 211 3.0 6.0 0.00 0.00 0.00 59 1017.1
20260902113023 83 205 3.0 9.0 0.00 0.00 0.00 60 1017.2
20260902111521 84 106 1.0 6.0 0.00 0.00 0.00 60 1017.5
20260902110035 83 133 2.0 7.0 0.00 0.00 0.00 62 1017.7
20260902104532 82 311 0.0 7.0 0.00 0.00 0.00 63 1017.8
20260902103035 82 248 2.0 5.0 0.00 0.00 0.00 63 1017.8
20260902101517 83 137 2.0 7.0 0.00 0.00 0.00 61 1017.9
20260902100014 81 142 3.0 6.0 0.00 0.00 0.00 63 1018.1
20260902094511 81 131 3.0 7.0 0.00 0.00 0.00 64 1018.2
20260902093010 80 53 0.0 4.0 0.00 0.00 0.00 65 1018.2
20260902091510 80 137 0.0 4.0 0.00 0.00 0.00 66 1018.3
20260902090018 80 144 4.0 7.0 0.00 0.00 0.00 65 1018.4
20260902084505 79 153 2.0 7.0 0.00 0.00 0.00 65 1018.2
20260902083002 78 140 2.0 4.0 0.00 0.00 0.00 69 1018.1
20260902081503 78 141 3.0 5.0 0.00 0.00 0.00 70 1018.2
20260902074559 77 130 2.0 5.0 0.00 0.00 0.00 69 1017.9
20260902073057 77 51 2.0 5.0 0.00 0.00 0.00 71 1018.0
20260902071554 76 40 2.0 5.0 0.00 0.00 0.00 73 1018.1
20260902070050 76 44 2.0 6.0 0.00 0.00 0.00 74 1017.8
20260902064545 75 32 1.0 3.0 0.00 0.00 0.00 77 1017.7
20260902063053 74 355 3.0 4.0 0.00 0.00 0.00 79 1017.7
20260902061557 72 348 2.0 4.0 0.00 0.00 0.00 82 1017.5
20260902060039 70 61 2.0 5.0 0.00 0.00 0.00 84 1017.6
20260902054528 69 42 3.0 5.0 0.00 0.00 0.00 85 1017.5
20260902053022 69 40 2.0 4.0 0.00 0.00 0.00 86 1017.4
20260902051519 69 30 2.0 6.0 0.00 0.00 0.00 86 1017.2
20260902050021 69 45 3.0 5.0 0.00 0.00 0.00 86 1017.2
20260902044524 69 5 2.0 6.0 0.00 0.00 0.00 86 1017.2
20260902043014 68 34 2.0 4.0 0.00 0.00 0.00 86 1017.2
20260902041513 68 27 2.0 5.0 0.00 0.00 0.00 86 1017.0
20260902040012 69 42 4.0 6.0 0.00 0.00 0.00 86 1017.0
20260902034511 69 350 2.0 5.0 0.00 0.00 0.00 85 1016.9
20260902033010 69 5 2.0 5.0 0.00 0.00 0.00 85 1017.1
20260902031526 69 39 2.0 6.0 0.00 0.00 0.00 85 1017.1
20260902030008 69 34 2.0 3.0 0.00 0.00 0.00 85 1017.0
20260902024507 69 348 2.0 5.0 0.00 0.00 0.00 85 1017.0
20260902023014 69 9 2.0 4.0 0.00 0.00 0.00 85 1017.1
20260902021507 70 40 3.0 4.0 0.00 0.00 0.00 84 1017.0
20260902020005 70 23 2.0 3.0 0.00 0.00 0.00 84 1016.9
20260902014502 70 36 2.0 5.0 0.00 0.00 0.00 84 1016.9
20260902013002 71 36 2.0 4.0 0.00 0.00 0.00 83 1016.9
20260902011501 71 35 2.0 5.0 0.00 0.00 0.00 83 1016.9
20260902010105 71 34 3.0 5.0 0.00 0.00 0.00 83 1016.9
20260902004559 71 36 3.0 5.0 0.00 0.00 0.00 83 1017.0
20260902003058 71 40 1.0 5.0 0.00 0.00 0.00 83 1017.0
20260902001603 71 355 3.0 4.0 0.00 0.00 0.00 82 1017.0
20260902000057 71 342 2.0 4.0 0.00 0.00 0.00 82 1017.0
20260901234604 72 37 4.0 6.0 0.00 0.00 0.00 82 1017.1
20260901233053 72 35 2.0 5.0 0.00 0.00 0.00 81 1016.9
20260901231557 72 40 2.0 4.0 0.00 0.00 0.00 80 1017.0
20260901230104 73 39 4.0 6.0 0.00 0.00 0.00 80 1017.0
20260901224551 73 40 3.0 5.0 0.00 0.00 0.00 80 1017.0
20260901223050 73 346 3.0 4.0 0.00 0.00 0.00 80 1017.0
20260901221604 72 28 2.0 3.0 0.00 0.00 0.00 81 1017.0
20260901220046 72 5 2.0 5.0 0.00 0.00 0.00 81 1016.8
20260901214545 72 23 3.0 5.0 0.00 0.00 0.00 81 1016.8
20260901213051 72 24 3.0 5.0 0.00 0.00 0.00 81 1016.9
20260901211545 73 42 2.0 4.0 0.00 0.00 0.00 81 1016.8
20260901210044 73 42 2.0 4.0 0.00 0.00 0.00 80 1016.8
20260901204544 74 38 3.0 5.0 0.00 0.00 0.00 79 1016.8
20260901203046 74 42 2.0 5.0 0.00 0.00 0.00 78 1016.7
20260901201548 74 40 2.0 4.0 0.00 0.00 0.00 77 1016.7
20260901200041 75 44 3.0 5.0 0.00 0.00 0.00 77 1016.6
20260901194541 75 37 0.0 0.0 0.00 0.00 0.00 76 1016.6
20260901193040 76 37 1.0 4.0 0.00 0.00 0.00 76 1016.3
20260901191543 76 44 4.0 6.0 0.00 0.00 0.00 75 1016.2
20260901190040 77 39 3.0 5.0 0.00 0.00 0.00 73 1016.0
20260901184539 78 40 2.0 3.0 0.00 0.00 0.00 72 1015.8
20260901183059 79 40 2.0 4.0 0.00 0.00 0.00 70 1015.7
20260901181539 80 49 2.0 3.0 0.00 0.00 0.00 68 1015.6
20260901180038 81 114 0.0 0.0 0.00 0.00 0.00 66 1015.5
20260901174537 81 114 0.0 0.0 0.00 0.00 0.00 64 1015.5
20260901173049 82 114 0.0 2.0 0.00 0.00 0.00 62 1015.3
20260901171549 82 114 1.0 3.0 0.00 0.00 0.00 61 1015.1
20260901170047 83 89 1.0 3.0 0.00 0.00 0.00 61 1015.2
20260901164535 83 72 2.0 6.0 0.00 0.00 0.00 60 1015.3
20260901163051 84 96 3.0 5.0 0.00 0.00 0.00 58 1015.3
20260901161541 84 44 3.0 6.0 0.00 0.00 0.00 56 1015.3
20260901160038 85 49 2.0 4.0 0.00 0.00 0.00 56 1015.3